Location: Diebersbach
(48.5163°N, 8.0558°E)
Time: 22:01:28
(UTC+00:00)

FENGYUN 1C DEB - Pass Details

Date: 03 February 2022
Orbit: 690 x 984 km, 98.6° (Epoch: 20 May)

Event Time Altitude Azimuth Distance (km) Brightness Sun altitude
Rises 19:28:19 0° 225° (SW) 3,672 ? -29.7°
Reaches altitude 10° 19:32:43 10° 255° (WSW) 2,741 ? -30.5°
Maximum altitude 19:35:00 12° 277° (W) 2,591 ? -30.8°
Drops below altitude 10° 19:37:17 10° 299° (WNW) 2,737 ? -31.2°
Sets 19:41:42 0° 329° (NNW) 3,661 ? -31.9°
